www.pogodaiklimat.ru
ПОГОДА в Шавано
Время
и дата
07:35 04.12
07:55 04.12
08:15 04.12
08:35 04.12
08:55 04.12
09:15 04.12
09:35 04.12
09:55 04.12
10:15 04.12
10:35 04.12
10:55 04.12
11:15 04.12
11:35 04.12
11:55 04.12
12:15 04.12
12:35 04.12
12:55 04.12
13:15 04.12
13:35 04.12
13:55 04.12
14:15 04.12
14:35 04.12
14:55 04.12
15:15 04.12
15:35 04.12
15:55 04.12
16:15 04.12
16:35 04.12
16:55 04.12
17:15 04.12
17:35 04.12
17:55 04.12
18:15 04.12
18:35 04.12
18:55 04.12
19:15 04.12
19:35 04.12
19:55 04.12
20:15 04.12
20:35 04.12
20:55 04.12
21:15 04.12
21:35 04.12
21:55 04.12
22:15 04.12
22:35 04.12
22:55 04.12
23:15 04.12
Ветер
(напр.,м/с)
Видим. Явления Облачность Т
(С)
Тd
(С)
f
(%)
Тe
(С)
Тes
(С)
Комфортность P
(гПа)
Po
(гПа)
Тmin
(С)
Tmax
(С)
R
(мм)
R24
(мм)
S
(см)
штиль 0 16 км 10/0 2250 м
[Ac]
+1.1 -3.5 71 0 0 980.4
штиль 0 16 км 10/0 2250 м
[Ac]
+1.0 -3.5 72 0 0 980.7
штиль 0 16 км 5/0 2250 м
[Ac]
+0.8 -3.6 72 0 0 981.0
штиль 0 16 км 5/0 2250 м
[Ac]
+1.3 -3.2 72 +1 +1 981.0
штиль 0 16 км ясно +2.4 -3.4 66 +2 +2 981.0
С 1 16 км ясно +2.9 -3.2 64 0 +1 981.7
С 1 16 км ясно +3.5 -3.1 62 0 +1 981.7
СВ 1 16 км ясно +4.0 -2.8 61 +1 +2 982.0
С 2 16 км 5/5 870 м +4.3 -2.9 59 0 0 982.0
СВ 2 16 км 5/5 870 м +4.4 -2.9 59 0 +1 982.0
СВ 1 16 км ясно +4.7 -2.8 58 +2 +3 982.3
СВ 1 16 км 5/5 990 м +4.7 -3.2 57 +2 +3 982.3
С 2 16 км ясно +5.2 -3.6 53 +2 +4 982.7
СВ 1 16 км ясно +5.4 -3.7 52 +3 +5 982.7 +0.5 +5.4
СВ 1 16 км ясно +5.2 -3.5 53 +2 +5 983.0
С 1 16 км 5/5 1080 м +5.5 -4.0 50 +3 +4 983.0
СВ 1 16 км ясно +5.5 -3.8 51 +3 +5 983.0
СВ 1 16 км ясно +5.5 -4.1 50 +3 +5 983.0
СВ 1 16 км ясно +5.3 -4.8 48 +3 +6 983.3
СВ 1 16 км 5/5 1230 м +5.5 -4.8 47 +4 +5 983.6
СВ 1 16 км ясно +4.7 -4.5 51 +3 +4 983.6
СВ 1 16 км ясно +4.9 -5.0 49 +3 +5 984.0
штиль 0 16 км ясно +5.3 -4.8 48 +5 +8 984.3
В 1 16 км 5/5 1290 м +5.5 -5.1 46 +4 +4 984.6
СВ 1 16 км 5/5 1290 м +4.4 -4.4 53 +2 +3 984.6
СВ 1 16 км ясно +3.8 -4.4 55 +2 +2 985.0
штиль 0 16 км ясно +3.5 -4.6 55 +3 +3 985.3
штиль 0 16 км ясно +1.8 -2.7 72 +1 +1 985.3
В 1 16 км ясно +1.0 -4.2 68 -2 -2 985.9
В 1 16 км ясно +0.9 -4.2 69 -3 -3 986.3
В 1 16 км ясно +0.4 -4.6 69 -3 -3 986.3
В 1 16 км ясно +0.3 -4.3 71 -3 -3 986.9 +0.1 +6.0
СВ 1 16 км ясно +0.3 -3.8 74 -3 -3 987.3
С 1 16 км ясно 0.0 -4.5 72 -3 -3 987.6
С 1 16 км ясно -0.5 -4.7 73 -4 -4 987.9
СВ 1 16 км ясно -0.7 -4.5 75 -5 -5 987.9
штиль 0 16 км ясно -0.4 -4.7 73 -1 -1 987.9
штиль 0 16 км ясно -0.7 -4.8 74 -2 -2 988.2
штиль 0 16 км ясно -1.2 -4.6 78 -2 -2 988.2
штиль 0 16 км ясно -1.6 -5.0 78 -3 -3 988.6
штиль 0 16 км ясно -2.1 -5.0 80 -3 -3 988.6
СВ 1 16 км ясно -1.7 -4.7 80 -5 -5 988.6
СВ 1 16 км ясно -1.5 -4.8 78 -5 -5 988.9
штиль 0 16 км 5/5 750 м -1.8 -4.7 81 -3 -3 988.9
штиль 0 16 км 10/10 750 м -2.4 -5.2 81 -3 -3 989.2
штиль 0 16 км 10/10 750 м -2.2 -5.0 81 -3 -3 989.6
штиль 0 16 км 10/10 750 м -1.8 -5.0 79 -3 -3 989.6
штиль 0 16 км 10/10 750 м -1.6 -4.5 81 -3 -3 989.9
Местоположение метеостанции Shawano Municipal Airport: широта 44.7870 долгота -88.5600 высота над уровнем моря 248 м.
В архиве по умолчанию представлена погода в Шавано за последние 1-2 суток. Обновление информации о фактической погоде в базе происходит ежечасно! Архивные данные за месяц целиком и за предыдущие месяцы Вы можете получить, выбрав интересующий диапазон дат из раскрывающегося списка и нажав кнопку "Ввод!".
Внимание! Архив погоды МЕТАР в базе сайта по станциям, не включенным в климатический монитор, хранится не более 60 дней. Нет смысла пытаться выбрать более раннюю дату.
*Определитесь, кто Вы:
Внимание! Время в таблицах - местное (без учета летнего времени). Для получения всемирного времени необходимо вычесть поправку, которая равна -6 ч.
Смотрите также архив погоды в соседних городах и на ближайших метеорологических станциях:
Партнеры нашего сайта:      
Пояснения к столбцам:
  • Ветер - указаны скорость ветра в м/с - средняя за 10 мин, порывы в срок и между сроками (в фигурных скобках) и направление, откуда дует ветер: С - северный,
  • СВ - северо-восточный, В - восточный, ЮВ - юго-восточный, Ю - южный, ЮЗ - юго-западный, З - западный, СЗ - северо-западный.
  • Видимость - горизонтальная дальность видимости в метрах или километрах. При видимости от 1 до 10 км при отсутствии осадков обычно наблюдается дымка, при ухудшении видимости до 1 км и менее - туман. В сухую погоду видимость может ухудшаться дымом, пылью или мглою.
  • Явления - указаны атмосферные явления, наблюдавшиеся в срок или в последний час перед сроком; фигурными скобками обозначены явления, наблюдавшиеся между сроками (за 1-3 часа до срока); квадратными скобками обозначены град или гололедные отложения с указанием их диаметра в мм.
  • Облачность - указаны через наклонную черту общая и нижняя облачность в баллах и высота нижней границы облаков в метрах; квадратными скобками обозначены формы облаков: Ci - перистые, Cs - перисто-слоистые, Cc - перисто-кучевые, Ac - высококучевые, As - высокослоистые, Sc - слоисто-кучевые, Ns - слоисто-дождевые, Cu - кучевые, Cb - кучево-дождевые. Подробнее классификацию облаков см. в Атласе облаков (PDF).
  • T - Температура воздуха - температура, измеренная на высоте 2 м над землей.
  • Td - Температура точки росы - температура, при понижении до которой содержащийся в воздухе водяной пар достигнет насыщения.
  • f - Относительная влажность воздуха - влажноcть воздуха, измеренная на высоте 2 м над землей.
  • Te - Эффективная температура - температура, которую ощущает одетый по сезону человек в тени. Характеристика душности погоды. При расчете учитывается влияние влажности воздуха и скорости ветра на теплоощущения человека.
  • Tes - Эффективная температура на солнце - температура, которую ощущает человек, с поправкой на солнечный нагрев. Характеристика знойности погоды. Зависит от высоты солнца над горизонтом, облачности и скорости ветра. Ночью, в пасмурную погоду, а также при ветре 12 м/с и более поправка равна нулю.
  • P - Атмосферное давление - приведенное к уровню моря атмосферное давление.
  • Po - Атмосферное давление - измеренное на уровне метеостанции атмосферное давление.
  • Tmin - Минимальная температура - минимум температуры воздуха на высоте 2 м над землей.
  • Tmax - Максимальная температура - максимум температуры воздуха на высоте 2 м над землей.
  • R - Количество осадков - Количество выпавших осадков за период времени, мм. При наведении курсора мыши на число - период времени, за который выпало указанное количество осадков.
  • R24 - Количество осадков - Количество выпавших осадков за 24 часа, мм.
  • S - Снежный покров - Высота снежного покрова, см. При наведении курсора мыши на число - состояние снежного покрова и степень покрытия местности в баллах.